[[{"header":{"parameterUnit":"m.s-1","parameterCategory":2,"la1":30.2991,"la2":30.254,"lo1":-89.0895,"lo2":-89.0444,"dy":0.0017,"dx":0.0017,"nx":28,"ny":28,"refTime":"2025-02-03T03:00:00:Z","depth":"0","parameterNumber":2,"parameterNumberName":"U-component_of_CURRENTS"},"data":[0,0,0,0,0,0,0,0,0,0,0,0,0,0,0,0,0,0,0,0,0,0,0,0,0,0,0,0,0,0,0,0,0,0,0,0,0,0,0,0,0,0,0,0,0,0,0,0,0,0,0,0,0,0,0,0,0,0,0.1643,0.1644,0,0.1716,0.1717,0.1717,0.1758,0.1758,0.1758,0.1759,0.182,0.1821,0.1823,0,0,0,0,0,0,0,0,0,0,0,0,0,0.1562,0.1563,0.1643,0.1644,0.1645,0.1716,0.1717,0.1718,0.1758,0.1758,0.1758,0.1759,0.1819,0.1821,0.1823,0,0,0,0,0,0,0,0,0,0,0,0,0,0.1611,0.1563,0.1643,0.1674,0.1678,0.1716,0.1717,0.1718,0.1758,0.1758,0.1759,0.1759,0.1819,0.1821,0.1823,0.1831,0,0,0.183,0.1831,0,0,0,0,0,0,0,0,0.1609,0.1614,0.1668,0.1672,0.1676,0.1729,0.1711,0.1755,0.1758,0.1727,0.1759,0.1759,0.1789,0.1793,0.1806,0.1834,0.1837,0.183,0.1831,0.1832,0.1833,0,0,0,0,0,0,0,0.1605,0.1611,0.1671,0.1669,0.1674,0.1693,0.17,0.172,0.1754,0.1729,0.1733,0.1742,0.1791,0.1803,0.1807,0.1838,0.183,0.1832,0.1833,0.1834,0.1866,0.1866,0,0,0,0,0,0,0.1596,0.1608,0.1669,0.1673,0.1643,0.1694,0.1702,0.1711,0.1755,0.1762,0.1742,0.1744,0.18,0.1805,0.181,0.1796,0.1832,0.1834,0.1836,0.1867,0.1866,0.1866,0,0,0,0,0,0,0.1594,0.1601,0.1666,0.1643,0.1653,0.1695,0.1705,0.1712,0.1719,0.1764,0.1771,0.174,0.18,0.1807,0.1822,0.18,0.1835,0.1837,0.1867,0.1867,0.1866,0.1785,0,0,0,0,0,0,0.1591,0.16,0.1595,0.1642,0.1654,0.167,0.1705,0.1714,0.1725,0.1728,0.1765,0.1772,0.1801,0.1819,0.1824,0.1803,0.1839,0.1868,0.1867,0.1866,0.1789,0.1782,0.1776,0,0,0,0,0,0.1588,0.1576,0.1594,0.1601,0.1648,0.1669,0.1676,0.1707,0.1725,0.1716,0.175,0.177,0.1817,0.182,0.1827,0.1806,0.1868,0.1867,0.1866,0.1791,0.1783,0.1777,0,0,0,0,0,0,0.1527,0.1581,0.1601,0.1603,0.1628,0.1676,0.1671,0.1698,0.172,0.1722,0.1767,0.1775,0.1783,0.1807,0.1809,0.1814,0.1845,0.1845,0.1786,0.1779,0.1773,0.1749,0.1841,0,0,0,0,0,0.1515,0.1524,0.1573,0.1569,0.1581,0.1625,0.1636,0.166,0.1691,0.17,0.1731,0.1761,0.1785,0.1791,0.1818,0.1816,0.1855,0.1808,0.1802,0.1796,0.1783,0.1823,0.1819,0.1862,0.1862,0.1862,0,0,0.1488,0.1519,0.1522,0.1558,0.158,0.1585,0.1631,0.1641,0.164,0.1703,0.1704,0.1743,0.1783,0.1787,0.1791,0.1801,0.1809,0.1795,0.179,0.1779,0.1822,0.1818,0.1814,0.1862,0.1862,0.1862,0,0,0.1443,0.1468,0.1464,0.1483,0.1517,0.1543,0.1542,0.1587,0.1599,0.1612,0.1659,0.1681,0.1714,0.1737,0.1754,0.1728,0.1781,0.1738,0.1679,0.1718,0.1715,0.1712,0.1771,0.1774,0.1727,0.1727,0.1727,0,0.1405,0.1419,0.146,0.1461,0.1468,0.152,0.151,0.1527,0.157,0.1576,0.1597,0.1655,0.1687,0.1695,0.1687,0.1711,0.1753,0.1701,0.1709,0.1707,0.1706,0.1767,0.1772,0.1723,0.1724,0.1724,0.1724,0,0.1372,0.1375,0.1369,0.1392,0.1397,0.1397,0.143,0.1435,0.1461,0.1489,0.1506,0.1558,0.1593,0.1604,0.1636,0.1639,0.1681,0.1702,0.1724,0.1696,0.1763,0.177,0.1717,0.1719,0.172,0.1721,0,0,0.131,0.134,0.1338,0.1338,0.1364,0.1366,0.1353,0.1365,0.1364,0.1398,0.1404,0.1438,0.148,0.1501,0.155,0.1572,0.1607,0.1623,0.1628,0.1675,0.1713,0.1857,0.1878,0.1632,0.1633,0.1633,0.1768,0,0.1272,0.1262,0.1286,0.126,0.1256,0.1285,0.1269,0.1282,0.1309,0.1328,0.1373,0.1409,0.1437,0.147,0.1488,0.1599,0.1617,0.1569,0.1738,0.1743,0.1868,0.1888,0.1952,0.2088,0.1775,0.1776,0.1777,0,0.1241,0.1239,0.1215,0.1207,0.1205,0.1193,0.1186,0.1184,0.1215,0.1241,0.1273,0.1335,0.139,0.1418,0.1545,0.1519,0.1593,0.1661,0.1669,0.1832,0.1898,0.2063,0.2112,0.2027,0.1787,0.1786,0.1786,0,0.1201,0.1188,0.1169,0.1168,0.1166,0.1148,0.1143,0.1155,0.1167,0.1206,0.1246,0.1299,0.1388,0.145,0.1625,0.158,0.1789,0.1749,0.1935,0.1947,0.205,0.2071,0.203,0.1803,0.1803,0.1802,0.1802,0,0.117,0.1152,0.1149,0.1142,0.1108,0.1109,0.1088,0.1096,0.1124,0.1169,0.1212,0.1303,0.1404,0.1553,0.1632,0.1857,0.1806,0.1937,0.1994,0.2028,0.2045,0.2016,0.1985,0.1807,0.1806,0.1805,0.1804,0,0.1152,0.1148,0.1129,0.111,0.1098,0.1079,0.1074,0.1076,0.1102,0.1173,0.1201,0.1344,0.1564,0.1694,0.1873,0.1932,0.2079,0.2163,0.222,0.2282,0.2333,0.2298,0.2288,0.2262,0.2345,0.235,0.2353,0,0.1149,0.114,0.1118,0.1113,0.1109,0.1081,0.1074,0.107,0.1103,0.1233,0.1295,0.1515,0.1718,0.205,0.222,0.2409,0.2291,0.2538,0.244,0.236,0.236,0.2209,0.2172,0.2543,0.2548,0.2552,0.2556,0,0.1156,0.1152,0.115,0.1142,0.1129,0.1117,0.112,0.114,0.1184,0.1269,0.1479,0.165,0.2007,0.2285,0.2546,0.2656,0.247,0.2627,0.2514,0.2498,0.2359,0.2356,0.243,0.2592,0.2588,0.2586,0.2584,0.2582,0.1177,0.1183,0.1193,0.119,0.1179,0.1198,0.1206,0.1256,0.1338,0.1497,0.1631,0.1889,0.2242,0.2649,0.2735,0.2893,0.2761,0.2837,0.2801,0.2649,0.2617,0.2796,0.3043,0.3042,0.3041,0.304,0.304,0,0.121,0.1228,0.1241,0.1251,0.1266,0.1243,0.1275,0.1311,0.1444,0.1618,0.181,0.2184,0.2523,0.2755,0.3041,0.302,0.2876,0.2974,0.2715,0.267,0.2824,0.2824,0.3071,0.3071,0.3071,0.3072,0.3072,0.3072,0.1229,0.1263,0.128,0.1338,0.1347,0.1369,0.1393,0.1465,0.1576,0.1818,0.2008,0.2168,0.2493,0.2926,0.3063,0.3044,0.2783,0.28,0.2674,0.273,0.2709,0.2688,0.2674,0.2886,0.2886,0.245,0.2448,0.2445]},{"header":{"parameterUnit":"m.s-1","parameterCategory":2,"la1":30.2991,"la2":30.254,"lo1":-89.0895,"lo2":-89.0444,"dy":0.0017,"dx":0.0017,"nx":28,"ny":28,"refTime":"2025-02-03T03:00:00:Z","depth":"0","parameterNumber":3,"parameterNumberName":"V-component_of_CURRENTS"},"data":[0,0,0,0,0,0,0,0,0,0,0,0,0,0,0,0,0,0,0,0,0,0,0,0,0,0,0,0,0,0,0,0,0,0,0,0,0,0,0,0,0,0,0,0,0,0,0,0,0,0,0,0,0,0,0,0,0,0,0.0669,0.067,0,0.0707,0.0707,0.0708,0.0705,0.0704,0.0704,0.0704,0.0702,0.0702,0.0703,0,0,0,0,0,0,0,0,0,0,0,0,0,0.0613,0.0614,0.0669,0.067,0.0671,0.0707,0.0707,0.0708,0.0705,0.0704,0.0704,0.0703,0.0702,0.0702,0.0703,0,0,0,0,0,0,0,0,0,0,0,0,0,0.064,0.0614,0.0669,0.0675,0.0677,0.0707,0.0707,0.0708,0.0705,0.0704,0.0704,0.0703,0.0702,0.0702,0.0703,0.0715,0,0,0.0704,0.0704,0,0,0,0,0,0,0,0,0.0639,0.0642,0.0674,0.0675,0.0676,0.0703,0.0687,0.0709,0.0705,0.0691,0.0704,0.0703,0.0701,0.0701,0.0706,0.0715,0.0714,0.0704,0.0704,0.0704,0.0704,0,0,0,0,0,0,0,0.0637,0.064,0.0681,0.0675,0.0676,0.0683,0.0686,0.0691,0.0695,0.0692,0.0693,0.0702,0.0701,0.0706,0.0706,0.0714,0.0704,0.0704,0.0704,0.0705,0.0696,0.0696,0,0,0,0,0,0,0.0637,0.0639,0.068,0.0683,0.0659,0.0685,0.0688,0.0693,0.0696,0.0697,0.0702,0.0701,0.0705,0.0706,0.0706,0.0709,0.0704,0.0705,0.0705,0.0697,0.0696,0.0696,0,0,0,0,0,0,0.0636,0.064,0.0679,0.0664,0.067,0.0687,0.0692,0.0694,0.07,0.0705,0.0704,0.0707,0.0705,0.0705,0.071,0.0709,0.0705,0.0705,0.0697,0.0696,0.0696,0.0721,0,0,0,0,0,0,0.0634,0.064,0.064,0.0664,0.0671,0.0697,0.0693,0.0695,0.0708,0.0707,0.0709,0.0708,0.0705,0.0709,0.071,0.0709,0.0705,0.0698,0.0697,0.0696,0.0721,0.0721,0.0722,0,0,0,0,0,0.0632,0.0638,0.0639,0.0644,0.0671,0.0697,0.0701,0.071,0.0709,0.0713,0.0712,0.0708,0.0704,0.071,0.0711,0.071,0.0698,0.0697,0.0696,0.0721,0.0721,0.0722,0,0,0,0,0,0,0.0618,0.0639,0.0641,0.0654,0.0673,0.0698,0.0704,0.0713,0.0718,0.0712,0.0713,0.0713,0.0714,0.0707,0.0714,0.0701,0.0696,0.0695,0.0714,0.0714,0.0715,0.0707,0.0706,0,0,0,0,0,0.0615,0.0621,0.0646,0.0656,0.0665,0.0684,0.0695,0.0702,0.0713,0.0715,0.0721,0.0715,0.0711,0.0709,0.0707,0.0708,0.0688,0.0703,0.0703,0.0704,0.0696,0.0673,0.0671,0.0692,0.0692,0.0692,0,0,0.0614,0.0626,0.063,0.0653,0.0666,0.0677,0.0689,0.0705,0.0709,0.0714,0.0719,0.0723,0.0712,0.0712,0.071,0.0706,0.0685,0.0702,0.0703,0.0695,0.0671,0.0669,0.0667,0.0692,0.0692,0.0692,0,0,0.0615,0.0625,0.0628,0.0642,0.0662,0.0675,0.0681,0.0706,0.0709,0.072,0.0719,0.0723,0.0723,0.0717,0.0712,0.0712,0.0692,0.0707,0.0703,0.0682,0.068,0.0678,0.0646,0.0642,0.0704,0.0704,0.0704,0,0.0613,0.0615,0.0635,0.0641,0.0646,0.0673,0.0674,0.0688,0.0711,0.0712,0.0719,0.072,0.0722,0.0713,0.0713,0.0714,0.0693,0.0707,0.0683,0.0681,0.0679,0.0647,0.0641,0.0705,0.0705,0.0705,0.0705,0,0.0614,0.0614,0.062,0.0629,0.064,0.0648,0.0667,0.0679,0.0689,0.0702,0.0706,0.0715,0.0713,0.0715,0.0716,0.0701,0.0688,0.0692,0.0686,0.0678,0.0645,0.0638,0.0707,0.0706,0.0706,0.0706,0,0,0.0615,0.0616,0.0617,0.0606,0.0628,0.0634,0.0644,0.0655,0.0659,0.0681,0.0684,0.0689,0.0704,0.0697,0.0705,0.069,0.0665,0.0684,0.0683,0.0659,0.0605,0.0608,0.0601,0.0666,0.0665,0.0664,0.0588,0,0.0607,0.0591,0.0603,0.0593,0.0584,0.0605,0.0609,0.0624,0.0645,0.0662,0.0673,0.0685,0.0694,0.0702,0.0688,0.0686,0.0649,0.0685,0.061,0.0607,0.0616,0.0594,0.0637,0.0573,0.0581,0.058,0.058,0,0.0605,0.0588,0.0564,0.055,0.055,0.0551,0.0555,0.0566,0.0599,0.0619,0.064,0.0666,0.0673,0.0675,0.0641,0.0664,0.0624,0.0609,0.0605,0.0593,0.0598,0.0581,0.0561,0.0386,0.057,0.057,0.0571,0,0.0579,0.0565,0.0532,0.053,0.0525,0.0517,0.052,0.0547,0.0567,0.0602,0.0637,0.0638,0.0669,0.062,0.0627,0.0621,0.0584,0.057,0.0518,0.0518,0.053,0.0533,0.0338,0.0501,0.0501,0.0501,0.0501,0,0.0566,0.0547,0.0512,0.0499,0.0467,0.0478,0.0474,0.0491,0.0533,0.0586,0.0614,0.068,0.0659,0.0665,0.0616,0.057,0.0571,0.0505,0.0496,0.054,0.0544,0.0374,0.0265,0.0498,0.0499,0.0499,0.05,0,0.0561,0.0536,0.05,0.0467,0.0456,0.0436,0.0454,0.0476,0.0514,0.059,0.0613,0.0705,0.0741,0.0705,0.0657,0.0578,0.0425,0.0486,0.054,0.0538,0.0307,0.0199,0.0012,-0.0074,0.0388,0.0387,0.0387,0,0.0563,0.0537,0.0475,0.0458,0.0446,0.0425,0.0434,0.046,0.0518,0.0637,0.0699,0.0762,0.0879,0.0805,0.0692,0.0578,0.0427,0.0472,0.0458,0.0283,0.0155,0.0102,0.0039,0.0478,0.0479,0.0479,0.0479,0,0.0572,0.0539,0.0511,0.0466,0.0454,0.0456,0.0485,0.0535,0.0617,0.0715,0.0896,0.0997,0.097,0.0945,0.0764,0.0664,0.0342,0.0472,0.028,0.0189,0.0129,0.005,0.0526,0.0483,0.0482,0.0482,0.0482,0.0482,0.0593,0.0567,0.0527,0.0498,0.0491,0.0543,0.0595,0.0684,0.0814,0.1032,0.1076,0.1285,0.1159,0.0975,0.076,0.0378,0.0353,0.0251,0.0128,0.0086,0.0013,0.0486,0.0445,0.0445,0.0444,0.0444,0.0443,0,0.0629,0.0602,0.0574,0.0562,0.0595,0.0577,0.0681,0.0789,0.1004,0.1201,0.1387,0.1503,0.1269,0.0973,0.0479,0.0114,-0.001,-0.0097,-0.0182,-0.0235,0.0183,0.0197,0.0115,0.0115,0.0115,0.0115,0.0115,0.0115,0.0651,0.0635,0.0618,0.0677,0.0692,0.0788,0.0877,0.1044,0.1216,0.1537,0.1729,0.1861,0.1644,0.065,-0.0074,-0.0237,-0.0536,-0.0572,-0.075,-0.0485,-0.0462,-0.044,-0.0453,-0.067,-0.0672,-0.1076,-0.108,-0.1084]}],[{"header":{"parameterUnit":"m.s-1","parameterCategory":2,"la1":30.2991,"la2":30.254,"lo1":-89.0895,"lo2":-89.0444,"dy":0.0017,"dx":0.0017,"nx":28,"ny":28,"refTime":"2025-02-03T03:00:00:Z","depth":"2","parameterNumber":2,"parameterNumberName":"U-component_of_CURRENTS"},"data":[0,0,0,0,0,0,0,0,0,0,0,0,0,0,0,0,0,0,0,0,0,0,0,0,0,0,0,0,0,0,0,0,0,0,0,0,0,0,0,0,0,0,0,0,0,0,0,0,0,0,0,0,0,0,0,0,0,0,0.0115,0.0115,0,0.0153,0.0153,0.0154,0.0184,0.0185,0.0185,0.0185,0.0224,0.0225,0.0225,0,0,0,0,0,0,0,0,0,0,0,0,0,0.0062,0.0063,0.0115,0.0115,0.0116,0.0153,0.0154,0.0154,0.0184,0.0185,0.0185,0.0186,0.0224,0.0224,0.0225,0,0,0,0,0,0,0,0,0,0,0,0,0,0.009,0.0063,0.0115,0.0136,0.0139,0.0153,0.0154,0.0154,0.0184,0.0185,0.0185,0.0186,0.0223,0.0224,0.0225,0.0219,0,0,0.0228,0.0229,0,0,0,0,0,0,0,0,0.0088,0.0092,0.0133,0.0135,0.0138,0.0166,0.0149,0.0176,0.0184,0.0165,0.0185,0.0186,0.0205,0.0207,0.0211,0.0221,0.0222,0.0228,0.0229,0.0229,0.023,0,0,0,0,0,0,0,0.0086,0.009,0.0129,0.0133,0.0136,0.0142,0.0147,0.0154,0.018,0.0167,0.017,0.0176,0.0206,0.021,0.0213,0.0223,0.0228,0.0229,0.023,0.023,0.0267,0.0267,0,0,0,0,0,0,0.0084,0.0088,0.0127,0.013,0.0115,0.0143,0.0148,0.0155,0.018,0.0185,0.0175,0.0177,0.0208,0.0211,0.0214,0.0247,0.0229,0.023,0.0231,0.0267,0.0267,0.0268,0,0,0,0,0,0,0.0082,0.0087,0.0126,0.0111,0.0116,0.0143,0.0151,0.0155,0.0176,0.0187,0.0191,0.0193,0.0209,0.0213,0.0233,0.0247,0.0231,0.0232,0.0266,0.0267,0.0267,0.0287,0,0,0,0,0,0,0.0081,0.0086,0.0097,0.0111,0.0117,0.0143,0.0151,0.0156,0.0178,0.0182,0.0203,0.0206,0.021,0.0232,0.0234,0.0248,0.0232,0.0266,0.0266,0.0267,0.0286,0.0288,0.029,0,0,0,0,0,0.0079,0.0089,0.0097,0.0102,0.0129,0.0143,0.0147,0.0167,0.0179,0.0188,0.0204,0.0207,0.0238,0.0233,0.0236,0.025,0.0265,0.0266,0.0267,0.0285,0.0288,0.029,0,0,0,0,0,0,0.0079,0.0094,0.0103,0.012,0.0135,0.0149,0.0164,0.0175,0.0195,0.0202,0.0212,0.0216,0.0238,0.024,0.0234,0.0262,0.0252,0.0254,0.0265,0.0267,0.0269,0.0274,0.0233,0,0,0,0,0,0.0081,0.0091,0.0107,0.0123,0.0131,0.0149,0.0161,0.0173,0.0189,0.02,0.0215,0.023,0.0241,0.0252,0.026,0.0277,0.0299,0.0287,0.0289,0.0291,0.0296,0.0335,0.0342,0.0271,0.0271,0.0271,0,0,0.0085,0.0097,0.0103,0.0123,0.0138,0.0146,0.0158,0.0179,0.019,0.02,0.0225,0.0238,0.0246,0.0264,0.0274,0.0271,0.0327,0.0292,0.0294,0.0298,0.0337,0.0344,0.0351,0.0271,0.0271,0.0271,0,0,0.0088,0.0109,0.0113,0.0125,0.0146,0.0156,0.0164,0.0186,0.0203,0.0224,0.0234,0.0258,0.0274,0.0286,0.0292,0.0311,0.0335,0.0314,0.0333,0.0371,0.0378,0.0384,0.044,0.0451,0.0318,0.0318,0.0318,0,0.0093,0.01,0.0118,0.0124,0.0136,0.016,0.0167,0.0184,0.0211,0.023,0.0235,0.0278,0.0284,0.0312,0.0318,0.0317,0.035,0.0323,0.0375,0.0382,0.0387,0.0444,0.0455,0.0319,0.0319,0.0319,0.0319,0,0.009,0.0102,0.0108,0.0121,0.0137,0.0149,0.0172,0.0196,0.022,0.0239,0.0281,0.0297,0.0327,0.033,0.033,0.0373,0.0388,0.0372,0.037,0.0396,0.0453,0.0465,0.0321,0.032,0.032,0.032,0,0,0.008,0.0099,0.0102,0.0111,0.0137,0.0149,0.0175,0.0205,0.0238,0.0266,0.031,0.0329,0.0355,0.0363,0.0374,0.0405,0.0475,0.0409,0.0411,0.0469,0.0584,0.0605,0.062,0.0473,0.0475,0.0476,0.0615,0,0.0071,0.0076,0.0092,0.0106,0.0112,0.0147,0.0173,0.0209,0.0248,0.0298,0.033,0.0374,0.0362,0.0392,0.0419,0.0464,0.0505,0.0441,0.0547,0.0551,0.0569,0.0633,0.0561,0.068,0.0627,0.0629,0.063,0,0.0056,0.0064,0.0069,0.0104,0.0113,0.013,0.0189,0.0217,0.0287,0.0324,0.0375,0.0411,0.0471,0.0453,0.0549,0.0513,0.0551,0.058,0.0586,0.0606,0.0593,0.0642,0.0703,0.065,0.0648,0.0647,0.0646,0,0.0027,0.0049,0.0054,0.0063,0.0104,0.0127,0.016,0.0226,0.0275,0.0354,0.0411,0.0469,0.0532,0.0574,0.0642,0.0605,0.0754,0.0709,0.0766,0.0768,0.0728,0.0724,0.0776,0.0776,0.0776,0.0775,0.0775,0,0.0001,0.0008,0.0044,0.0046,0.0082,0.0116,0.0174,0.0219,0.0305,0.0385,0.043,0.0514,0.0567,0.0657,0.0683,0.0784,0.0794,0.0794,0.0811,0.0735,0.073,0.0707,0.0697,0.0781,0.0779,0.0778,0.0777,0,-0.0037,-0.002,-0.0003,0.0043,0.0066,0.0095,0.0191,0.0246,0.032,0.0431,0.0467,0.0581,0.0704,0.0763,0.0862,0.0863,0.0934,0.0961,0.0882,0.0886,0.0911,0.09,0.104,0.1042,0.1044,0.1045,0.1046,0,-0.0062,-0.0061,-0.0004,0.0032,0.0057,0.0113,0.0171,0.0248,0.0317,0.0481,0.0543,0.0691,0.0804,0.0962,0.0984,0.1057,0.1035,0.1031,0.0933,0.0939,0.0941,0.0927,0.0915,0.0897,0.0897,0.0897,0.0897,0,-0.0092,-0.0066,-0.0039,0.0033,0.0092,0.0157,0.024,0.0292,0.0408,0.0505,0.0668,0.0771,0.0924,0.0989,0.1073,0.1078,0.1007,0.1033,0.1082,0.0834,0.0814,0.0812,0.0803,0.0896,0.0896,0.0896,0.0896,0.0896,-0.0094,-0.0071,-0.0013,0.0056,0.0127,0.021,0.0262,0.0354,0.0463,0.0618,0.0722,0.0865,0.0922,0.1025,0.1032,0.1019,0.1057,0.1007,0.1003,0.1001,0.0952,0.0934,0.1033,0.1033,0.1034,0.1035,0.1035,0,-0.0084,-0.0039,0.0019,0.0106,0.018,0.0225,0.0326,0.0376,0.0491,0.0644,0.078,0.0814,0.0899,0.0952,0.0941,0.095,0.0877,0.0913,0.0819,0.0823,0.0825,0.0762,0.0795,0.0794,0.0793,0.0792,0,0,-0.0067,-0.001,0.0024,0.0144,0.0213,0.0309,0.0366,0.0434,0.0528,0.0645,0.0742,0.088,0.095,0.0872,0.0864,0.0845,0.0812,0.0803,0.1,0.0894,0.0895,0.0892,0.0802,0,0,0,0,0]},{"header":{"parameterUnit":"m.s-1","parameterCategory":2,"la1":30.2991,"la2":30.254,"lo1":-89.0895,"lo2":-89.0444,"dy":0.0017,"dx":0.0017,"nx":28,"ny":28,"refTime":"2025-02-03T03:00:00:Z","depth":"2","parameterNumber":3,"parameterNumberName":"V-component_of_CURRENTS"},"data":[0,0,0,0,0,0,0,0,0,0,0,0,0,0,0,0,0,0,0,0,0,0,0,0,0,0,0,0,0,0,0,0,0,0,0,0,0,0,0,0,0,0,0,0,0,0,0,0,0,0,0,0,0,0,0,0,0,0,-0.0313,-0.0313,0,-0.0307,-0.0307,-0.0307,-0.0318,-0.0318,-0.0318,-0.0319,-0.0311,-0.0311,-0.031,0,0,0,0,0,0,0,0,0,0,0,0,0,-0.032,-0.032,-0.0313,-0.0313,-0.0313,-0.0307,-0.0307,-0.0307,-0.0318,-0.0318,-0.0319,-0.0319,-0.0311,-0.0311,-0.031,0,0,0,0,0,0,0,0,0,0,0,0,0,-0.0317,-0.032,-0.0313,-0.0317,-0.0317,-0.0307,-0.0307,-0.0307,-0.0318,-0.0318,-0.0319,-0.0319,-0.0312,-0.0311,-0.031,-0.0298,0,0,-0.0308,-0.0308,0,0,0,0,0,0,0,0,-0.0317,-0.0317,-0.0316,-0.0316,-0.0317,-0.0312,-0.0306,-0.0303,-0.0318,-0.0319,-0.0319,-0.0319,-0.031,-0.031,-0.031,-0.0298,-0.0298,-0.0308,-0.0308,-0.0308,-0.0307,0,0,0,0,0,0,0,-0.0318,-0.0317,-0.0312,-0.0316,-0.0316,-0.0313,-0.0314,-0.0306,-0.0313,-0.0319,-0.0319,-0.0316,-0.0311,-0.031,-0.0309,-0.0297,-0.0308,-0.0308,-0.0307,-0.0307,-0.0262,-0.0261,0,0,0,0,0,0,-0.0316,-0.0317,-0.0312,-0.0312,-0.0317,-0.0313,-0.0313,-0.0314,-0.0313,-0.0313,-0.0316,-0.0317,-0.0311,-0.031,-0.0309,-0.0274,-0.0308,-0.0307,-0.0306,-0.0263,-0.0262,-0.0261,0,0,0,0,0,0,-0.0316,-0.0316,-0.0312,-0.0313,-0.0312,-0.0312,-0.0314,-0.0314,-0.0316,-0.0311,-0.0312,-0.0317,-0.0311,-0.031,-0.0297,-0.0274,-0.0307,-0.0306,-0.0264,-0.0262,-0.0261,-0.0216,0,0,0,0,0,0,-0.0317,-0.0316,-0.0316,-0.0313,-0.0312,-0.0303,-0.0313,-0.0314,-0.0313,-0.0314,-0.0312,-0.0312,-0.0312,-0.0298,-0.0297,-0.0274,-0.0305,-0.0265,-0.0263,-0.0262,-0.0219,-0.0213,-0.0209,0,0,0,0,0,-0.0317,-0.0313,-0.0317,-0.0316,-0.0313,-0.0302,-0.0302,-0.0304,-0.0312,-0.0308,-0.0306,-0.0312,-0.0288,-0.0297,-0.0295,-0.0272,-0.0265,-0.0263,-0.0262,-0.0221,-0.0214,-0.0209,0,0,0,0,0,0,-0.0314,-0.0314,-0.0317,-0.0314,-0.0307,-0.0304,-0.03,-0.0303,-0.0299,-0.0301,-0.0303,-0.0301,-0.0281,-0.0285,-0.0295,-0.0255,-0.0277,-0.0275,-0.0246,-0.024,-0.0236,-0.0233,-0.0305,0,0,0,0,0,-0.0314,-0.0313,-0.031,-0.0305,-0.0303,-0.0303,-0.03,-0.03,-0.0295,-0.0295,-0.0291,-0.0285,-0.0272,-0.0264,-0.0257,-0.0234,-0.0254,-0.0219,-0.0214,-0.021,-0.0207,-0.0219,-0.0216,-0.0255,-0.0255,-0.0255,0,0,-0.031,-0.031,-0.0309,-0.0305,-0.0302,-0.0284,-0.0302,-0.0294,-0.0275,-0.0293,-0.0268,-0.027,-0.0264,-0.0238,-0.0229,-0.0237,-0.021,-0.0208,-0.0204,-0.0203,-0.0217,-0.0213,-0.021,-0.0254,-0.0254,-0.0254,0,0,-0.0293,-0.0303,-0.0292,-0.0286,-0.0279,-0.0274,-0.0272,-0.0265,-0.026,-0.0239,-0.0244,-0.0234,-0.0216,-0.0203,-0.0196,-0.0161,-0.0187,-0.0158,-0.0127,-0.0138,-0.0135,-0.0133,-0.0158,-0.0158,-0.0152,-0.0152,-0.0152,0,-0.0287,-0.0274,-0.0286,-0.0269,-0.0257,-0.0267,-0.0243,-0.0235,-0.0223,-0.0214,-0.0226,-0.02,-0.0197,-0.0162,-0.0147,-0.0149,-0.0169,-0.0147,-0.0133,-0.0131,-0.0129,-0.0155,-0.0156,-0.0149,-0.015,-0.015,-0.015,0,-0.0257,-0.0246,-0.0238,-0.0219,-0.0208,-0.0192,-0.0181,-0.0169,-0.0168,-0.0162,-0.014,-0.014,-0.0127,-0.0119,-0.0119,-0.0096,-0.0119,-0.0129,-0.0148,-0.0122,-0.0152,-0.0153,-0.0146,-0.0147,-0.0148,-0.0148,0,0,-0.0242,-0.022,-0.0217,-0.02,-0.0181,-0.0168,-0.0136,-0.011,-0.0094,-0.0087,-0.0067,-0.0044,-0.0061,-0.0054,-0.0058,-0.006,-0.0064,-0.0085,-0.0087,-0.0111,-0.0103,-0.0133,-0.0138,-0.0074,-0.0074,-0.0074,-0.013,0,-0.0211,-0.0175,-0.0168,-0.0125,-0.0104,-0.0099,-0.0068,-0.005,-0.0043,-0.0028,-0.0031,-0.0018,-0.0031,-0.0029,-0.0031,-0.0058,-0.0066,-0.0049,-0.0122,-0.0125,-0.0156,-0.014,-0.0153,-0.0205,-0.0132,-0.0132,-0.0132,0,-0.0182,-0.0161,-0.012,-0.0082,-0.0072,-0.0049,-0.0014,0.0013,0.0029,0.0031,0.0036,0.0023,0.0027,0.0004,-0.0029,-0.002,-0.0055,-0.008,-0.0083,-0.0127,-0.0157,-0.0217,-0.0211,-0.0135,-0.0135,-0.0135,-0.0135,0,-0.0173,-0.0126,-0.0095,-0.0082,-0.0042,-0.0022,0.0002,0.0026,0.0054,0.0059,0.007,0.0058,0.0053,0.0012,-0.0037,-0.0037,-0.0088,-0.0098,-0.0158,-0.0162,-0.0195,-0.0202,-0.0124,-0.0124,-0.0123,-0.0123,-0.0123,0,-0.0149,-0.0124,-0.0091,-0.0077,-0.0035,-0.0012,0.0029,0.0046,0.0079,0.012,0.0095,0.0115,0.0056,0.0022,-0.0032,-0.0104,-0.0089,-0.0153,-0.0174,-0.0181,-0.0185,-0.0141,-0.0142,-0.0125,-0.0125,-0.0125,-0.0124,0,-0.0152,-0.013,-0.0094,-0.005,-0.0035,-0.001,0.0049,0.0087,0.0105,0.0156,0.0161,0.0153,0.0105,0.0035,-0.0039,-0.0095,-0.0164,-0.0193,-0.0203,-0.0225,-0.0234,-0.0232,-0.027,-0.0271,-0.0273,-0.0274,-0.0275,0,-0.0152,-0.0137,-0.0088,-0.0059,-0.0041,0.0003,0.0045,0.0088,0.0139,0.0189,0.0222,0.0186,0.0171,0.0032,-0.0086,-0.0207,-0.0189,-0.0288,-0.0284,-0.023,-0.0247,-0.0243,-0.024,-0.0316,-0.0317,-0.0318,-0.0318,0,-0.0155,-0.0143,-0.0114,-0.0056,-0.0011,0.0053,0.0118,0.0164,0.0232,0.0268,0.032,0.0302,0.0166,0.0024,-0.0155,-0.0228,-0.0274,-0.0311,-0.0251,-0.0273,-0.0276,-0.0292,-0.0287,-0.0327,-0.0326,-0.0325,-0.0325,-0.0324,-0.0163,-0.0143,-0.0102,-0.0046,0.0019,0.0111,0.0179,0.0252,0.0329,0.0392,0.037,0.0341,0.0163,-0.008,-0.0217,-0.0343,-0.0333,-0.0377,-0.0372,-0.0367,-0.0359,-0.0364,-0.043,-0.043,-0.043,-0.043,-0.0429,0,-0.0168,-0.0136,-0.0084,-0.0001,0.0084,0.0121,0.0243,0.0313,0.0414,0.0419,0.0429,0.026,0.0079,-0.0078,-0.029,-0.043,-0.042,-0.0449,-0.0416,-0.0409,-0.0402,-0.0394,-0.0475,-0.0475,-0.0475,-0.0475,0,0,-0.0166,-0.0128,-0.0095,0.0037,0.0117,0.0253,0.0336,0.0423,0.0463,0.0455,0.0419,0.0306,0.0111,-0.0055,-0.0251,-0.0352,-0.0335,-0.0365,-0.0322,-0.0256,-0.0246,-0.0365,-0.0345,0,0,0,0,0]}],[{"header":{"parameterUnit":"m.s-1","parameterCategory":2,"la1":30.2991,"la2":30.254,"lo1":-89.0895,"lo2":-89.0444,"dy":0.0017,"dx":0.0017,"nx":28,"ny":28,"refTime":"2025-02-03T03:00:00:Z","depth":"4","parameterNumber":2,"parameterNumberName":"U-component_of_CURRENTS"},"data":[0,0,0,0,0,0,0,0,0,0,0,0,0,0,0,0,0,0,0,0,0,0,0,0,0,0,0,0,0,0,0,0,0,0,0,0,0,0,0,0,0,0,0,0,0,0,0,0,0,0,0,0,0,0,0,0,0,0,0.0393,0.0393,0,0.0405,0.0405,0.0405,0.0415,0.0415,0.0415,0.0415,0.0412,0.0412,0.0412,0,0,0,0,0,0,0,0,0,0,0,0,0,0.0365,0.0365,0.0393,0.0393,0.0393,0.0405,0.0405,0.0405,0.0415,0.0415,0.0415,0.0416,0.0412,0.0412,0.0412,0,0,0,0,0,0,0,0,0,0,0,0,0,0.0375,0.0365,0.0393,0.0401,0.0402,0.0405,0.0405,0.0405,0.0415,0.0415,0.0415,0.0416,0.0412,0.0412,0.0412,0.0401,0,0,0.041,0.041,0,0,0,0,0,0,0,0,0.0375,0.0376,0.0399,0.04,0.0401,0.041,0.0394,0.0403,0.0415,0.0408,0.0415,0.0416,0.0411,0.041,0.041,0.0401,0.0401,0.041,0.041,0.0409,0.0409,0,0,0,0,0,0,0,0.0374,0.0376,0.0396,0.04,0.0401,0.0399,0.0401,0.0396,0.0406,0.0409,0.041,0.0414,0.0411,0.041,0.041,0.0401,0.041,0.041,0.0409,0.0409,0.0396,0.0396,0,0,0,0,0,0,0.0376,0.0375,0.0395,0.0396,0.0391,0.04,0.0402,0.0406,0.0406,0.0407,0.0413,0.0414,0.0411,0.041,0.041,0.0408,0.0409,0.0409,0.0409,0.0397,0.0396,0.0396,0,0,0,0,0,0,0.0375,0.0378,0.0395,0.0387,0.039,0.04,0.0404,0.0406,0.0419,0.041,0.041,0.0427,0.0411,0.041,0.0417,0.0408,0.0409,0.0408,0.0397,0.0397,0.0396,0.0398,0,0,0,0,0,0,0.0375,0.0377,0.0385,0.0387,0.039,0.0404,0.0404,0.0406,0.0421,0.0422,0.0422,0.0421,0.0411,0.0418,0.0417,0.0407,0.0408,0.0397,0.0397,0.0396,0.0398,0.0398,0.0398,0,0,0,0,0,0.0374,0.038,0.0385,0.0388,0.0398,0.0405,0.0406,0.0413,0.0421,0.0427,0.043,0.0422,0.0416,0.0418,0.0416,0.0406,0.0397,0.0397,0.0396,0.0398,0.0398,0.0398,0,0,0,0,0,0,0.0371,0.0382,0.0387,0.0397,0.0405,0.0407,0.0415,0.0422,0.0429,0.0434,0.0427,0.0426,0.0426,0.042,0.0422,0.0402,0.0403,0.0402,0.0404,0.0404,0.0404,0.0404,0.0408,0,0,0,0,0,0.0375,0.0385,0.0392,0.0402,0.0406,0.0414,0.042,0.0426,0.0431,0.0436,0.0437,0.0432,0.0422,0.0418,0.0413,0.0405,0.0413,0.0396,0.0396,0.0396,0.0395,0.0397,0.0398,0.0396,0.0396,0.0396,0,0,0.0376,0.0385,0.0391,0.0403,0.0409,0.0416,0.0419,0.0432,0.0438,0.0433,0.0446,0.0438,0.0422,0.0413,0.0411,0.0407,0.0405,0.0396,0.0396,0.0395,0.0397,0.0397,0.0398,0.0396,0.0396,0.0396,0,0,0.0383,0.0393,0.0403,0.0409,0.0424,0.0427,0.0435,0.0445,0.0451,0.0459,0.0452,0.0446,0.0437,0.0421,0.041,0.0408,0.0409,0.04,0.0395,0.0397,0.0397,0.0397,0.0427,0.043,0.0395,0.0395,0.0395,0,0.0385,0.0399,0.0407,0.0416,0.0425,0.0434,0.0445,0.0448,0.0461,0.0465,0.0465,0.0451,0.0438,0.0419,0.0408,0.0407,0.0417,0.0395,0.0397,0.0397,0.0397,0.0428,0.0431,0.0395,0.0395,0.0395,0.0395,0,0.0394,0.0409,0.0416,0.0431,0.044,0.0451,0.0457,0.0469,0.0478,0.0478,0.0475,0.0458,0.0448,0.0434,0.0414,0.0401,0.0412,0.0401,0.0397,0.0397,0.043,0.0433,0.0395,0.0395,0.0395,0.0395,0,0,0.0387,0.0417,0.042,0.0433,0.0451,0.0458,0.0471,0.0481,0.0492,0.049,0.0499,0.0463,0.0455,0.0442,0.042,0.0407,0.0415,0.0396,0.0396,0.0428,0.044,0.0458,0.0463,0.04,0.04,0.04,0.047,0,0.0393,0.0418,0.0431,0.0452,0.0464,0.0478,0.0488,0.0498,0.0505,0.0514,0.0492,0.0489,0.0457,0.045,0.0431,0.0423,0.042,0.0398,0.0433,0.0435,0.0451,0.0465,0.04,0.0472,0.0473,0.0473,0.0474,0,0.0393,0.0413,0.0438,0.0468,0.0474,0.0489,0.0513,0.0524,0.0532,0.0537,0.0529,0.0517,0.0501,0.0471,0.0465,0.0453,0.0442,0.0434,0.0437,0.0453,0.0458,0.0467,0.0479,0.0479,0.0479,0.0478,0.0478,0,0.0379,0.0415,0.0439,0.0447,0.0479,0.0498,0.0518,0.0533,0.0544,0.0556,0.0568,0.055,0.0556,0.053,0.0513,0.0489,0.0517,0.049,0.0502,0.0505,0.0467,0.0466,0.0481,0.0481,0.0481,0.0481,0.0481,0,0.0373,0.0389,0.0439,0.0447,0.0475,0.0501,0.0528,0.0543,0.0567,0.0579,0.0579,0.0586,0.0566,0.0576,0.0542,0.0549,0.0549,0.051,0.052,0.0469,0.0467,0.0471,0.0469,0.0484,0.0483,0.0483,0.0482,0,0.0344,0.0378,0.04,0.0447,0.0467,0.0484,0.0535,0.0548,0.0583,0.0605,0.0611,0.063,0.0654,0.0648,0.0636,0.0608,0.0598,0.0596,0.0578,0.0584,0.0578,0.0575,0.0621,0.0622,0.0623,0.0624,0.0625,0,0.0332,0.0342,0.0392,0.0408,0.0433,0.0473,0.0496,0.0543,0.0559,0.0622,0.0625,0.0675,0.0682,0.07,0.0687,0.068,0.0651,0.0658,0.0574,0.0586,0.0591,0.0586,0.0582,0.0626,0.0627,0.0627,0.0627,0,0.03,0.0317,0.0336,0.0376,0.0407,0.0436,0.048,0.0496,0.0552,0.0592,0.0631,0.0652,0.0699,0.07,0.0721,0.0691,0.0658,0.0667,0.0663,0.0584,0.0593,0.0595,0.059,0.063,0.063,0.063,0.0629,0,0.027,0.0274,0.0305,0.0337,0.0371,0.0395,0.0425,0.0467,0.0499,0.0578,0.0592,0.0649,0.0694,0.0709,0.071,0.0715,0.0684,0.064,0.0637,0.0633,0.0603,0.0613,0.0672,0,0,0,0,0,0.0238,0.0247,0.027,0.0304,0.0335,0.0362,0.041,0.0442,0.0511,0.0527,0.0562,0.0599,0.0642,0.0667,0.067,0.0708,0.0679,0.0709,0.0624,0.0649,0.0645,0.0606,0,0,0,0,0,0,0.0219,0.0235,0.0255,0.0275,0.0294,0.0328,0.0359,0.0404,0.0421,0.0491,0.0512,0.0571,0.0609,0.0632,0.0659,0.0668,0.0606,0.0747,0.0747,0.0651,0.0647,0.0644,0.0603,0,0,0,0,0]},{"header":{"parameterUnit":"m.s-1","parameterCategory":2,"la1":30.2991,"la2":30.254,"lo1":-89.0895,"lo2":-89.0444,"dy":0.0017,"dx":0.0017,"nx":28,"ny":28,"refTime":"2025-02-03T03:00:00:Z","depth":"4","parameterNumber":3,"parameterNumberName":"V-component_of_CURRENTS"},"data":[0,0,0,0,0,0,0,0,0,0,0,0,0,0,0,0,0,0,0,0,0,0,0,0,0,0,0,0,0,0,0,0,0,0,0,0,0,0,0,0,0,0,0,0,0,0,0,0,0,0,0,0,0,0,0,0,0,0,-0.0245,-0.0245,0,-0.0292,-0.0293,-0.0294,-0.0336,-0.0336,-0.0337,-0.0337,-0.041,-0.0412,-0.0413,0,0,0,0,0,0,0,0,0,0,0,0,0,-0.0207,-0.0208,-0.0245,-0.0245,-0.0246,-0.0292,-0.0293,-0.0294,-0.0336,-0.0336,-0.0337,-0.0337,-0.0409,-0.0411,-0.0413,0,0,0,0,0,0,0,0,0,0,0,0,0,-0.0238,-0.0208,-0.0245,-0.0271,-0.0273,-0.0292,-0.0293,-0.0294,-0.0336,-0.0336,-0.0337,-0.0337,-0.0409,-0.0411,-0.0414,-0.042,0,0,-0.0421,-0.0422,0,0,0,0,0,0,0,0,-0.0236,-0.024,-0.0266,-0.0269,-0.0272,-0.0307,-0.0307,-0.0337,-0.0336,-0.0314,-0.0337,-0.0337,-0.0376,-0.0381,-0.0392,-0.0424,-0.0427,-0.0422,-0.0423,-0.0424,-0.0425,0,0,0,0,0,0,0,-0.0234,-0.0238,-0.0266,-0.0267,-0.027,-0.0285,-0.029,-0.0313,-0.0344,-0.0316,-0.0319,-0.0321,-0.0378,-0.0389,-0.0394,-0.0428,-0.0422,-0.0424,-0.0425,-0.0426,-0.0521,-0.0522,0,0,0,0,0,0,-0.0223,-0.0236,-0.0264,-0.0267,-0.0252,-0.0286,-0.0291,-0.0297,-0.0344,-0.035,-0.032,-0.0322,-0.0385,-0.0391,-0.0397,-0.0472,-0.0424,-0.0427,-0.0428,-0.052,-0.0521,-0.0522,0,0,0,0,0,0,-0.0222,-0.0225,-0.0262,-0.0251,-0.0256,-0.0285,-0.0292,-0.0298,-0.032,-0.0346,-0.0354,-0.0338,-0.0386,-0.0393,-0.0434,-0.0472,-0.0428,-0.043,-0.0519,-0.052,-0.0522,-0.058,0,0,0,0,0,0,-0.022,-0.0224,-0.0231,-0.025,-0.0256,-0.028,-0.0291,-0.0298,-0.0319,-0.0323,-0.0363,-0.037,-0.0387,-0.043,-0.0436,-0.0475,-0.0432,-0.0517,-0.0519,-0.0521,-0.0577,-0.0584,-0.0589,0,0,0,0,0,-0.0219,-0.0224,-0.0231,-0.0235,-0.0263,-0.028,-0.0285,-0.0309,-0.0319,-0.0331,-0.0364,-0.0369,-0.0446,-0.0433,-0.044,-0.048,-0.0517,-0.0519,-0.0521,-0.0574,-0.0582,-0.0589,0,0,0,0,0,0,-0.0216,-0.0229,-0.0237,-0.0248,-0.0265,-0.0286,-0.03,-0.0313,-0.0348,-0.036,-0.0382,-0.0392,-0.0443,-0.0446,-0.043,-0.0511,-0.0482,-0.0486,-0.052,-0.0528,-0.0534,-0.0525,-0.0434,0,0,0,0,0,-0.0215,-0.0223,-0.0238,-0.0249,-0.0258,-0.0281,-0.0293,-0.0311,-0.0338,-0.0354,-0.0389,-0.0423,-0.0456,-0.0478,-0.0506,-0.0548,-0.0518,-0.0576,-0.0582,-0.0588,-0.0584,-0.0571,-0.0575,-0.053,-0.053,-0.053,0,0,-0.0217,-0.0225,-0.0231,-0.0249,-0.0266,-0.0287,-0.0291,-0.0315,-0.0342,-0.0357,-0.0416,-0.0446,-0.047,-0.0524,-0.0547,-0.0534,-0.0584,-0.0591,-0.0595,-0.0589,-0.0574,-0.0578,-0.0582,-0.0531,-0.0531,-0.0531,0,0,-0.0222,-0.0233,-0.0242,-0.0255,-0.0279,-0.0298,-0.0305,-0.0342,-0.0369,-0.0423,-0.0442,-0.0487,-0.0547,-0.057,-0.0587,-0.0637,-0.0615,-0.0657,-0.0687,-0.0675,-0.0678,-0.0681,-0.064,-0.0638,-0.0662,-0.0662,-0.0662,0,-0.0224,-0.0238,-0.0248,-0.0261,-0.0276,-0.0303,-0.0322,-0.0353,-0.0404,-0.0422,-0.0451,-0.0535,-0.0567,-0.0608,-0.0646,-0.0652,-0.0632,-0.0661,-0.0682,-0.0684,-0.0686,-0.0643,-0.064,-0.0665,-0.0665,-0.0665,-0.0664,0,-0.0236,-0.025,-0.0258,-0.0285,-0.0304,-0.0325,-0.0361,-0.0396,-0.0441,-0.0469,-0.0532,-0.0583,-0.0625,-0.0657,-0.0682,-0.0717,-0.0693,-0.0689,-0.0662,-0.0694,-0.0647,-0.0643,-0.067,-0.0669,-0.0668,-0.0667,0,0,-0.0235,-0.026,-0.0266,-0.027,-0.0318,-0.0326,-0.038,-0.0418,-0.0435,-0.0515,-0.0538,-0.0638,-0.0662,-0.0682,-0.0713,-0.073,-0.0743,-0.0733,-0.0731,-0.0689,-0.0698,-0.0683,-0.0676,-0.075,-0.075,-0.075,-0.0657,0,-0.0244,-0.0259,-0.0281,-0.0304,-0.0314,-0.0351,-0.0384,-0.0424,-0.0474,-0.0506,-0.0562,-0.0606,-0.0669,-0.07,-0.073,-0.0736,-0.0738,-0.0767,-0.0676,-0.0673,-0.0653,-0.0674,-0.075,-0.0654,-0.0653,-0.0652,-0.0652,0,-0.0257,-0.026,-0.0282,-0.0292,-0.03,-0.0326,-0.0366,-0.04,-0.0448,-0.0483,-0.0542,-0.058,-0.0635,-0.0674,-0.0699,-0.0719,-0.0719,-0.0721,-0.0716,-0.0678,-0.0651,-0.0618,-0.0644,-0.0645,-0.0646,-0.0646,-0.0647,0,-0.0243,-0.0261,-0.0273,-0.0281,-0.0306,-0.0325,-0.0348,-0.0398,-0.0407,-0.0468,-0.0473,-0.0545,-0.0562,-0.0599,-0.0647,-0.0672,-0.0642,-0.0655,-0.0626,-0.0623,-0.0637,-0.0635,-0.0648,-0.0648,-0.0649,-0.0649,-0.0649,0,-0.0243,-0.0249,-0.0263,-0.0267,-0.0269,-0.0301,-0.0315,-0.035,-0.0374,-0.0366,-0.0457,-0.0455,-0.055,-0.0559,-0.0607,-0.0605,-0.0602,-0.0627,-0.0605,-0.0662,-0.0664,-0.0633,-0.0632,-0.0645,-0.0646,-0.0647,-0.0647,0,-0.0236,-0.0249,-0.0248,-0.0261,-0.0266,-0.0271,-0.0281,-0.0281,-0.0314,-0.0303,-0.0319,-0.0369,-0.0395,-0.046,-0.0491,-0.0526,-0.054,-0.0531,-0.0563,-0.0545,-0.0532,-0.0536,-0.0482,-0.0481,-0.048,-0.0479,-0.0478,0,-0.0235,-0.0237,-0.0237,-0.0227,-0.0238,-0.0242,-0.0242,-0.0264,-0.0254,-0.0244,-0.0222,-0.0247,-0.0291,-0.0295,-0.0391,-0.0446,-0.0468,-0.046,-0.0542,-0.0535,-0.0519,-0.0524,-0.0529,-0.0477,-0.0476,-0.0476,-0.0476,0,-0.0225,-0.023,-0.0223,-0.0206,-0.0201,-0.0182,-0.0177,-0.0152,-0.016,-0.0169,-0.0131,-0.0171,-0.0177,-0.0258,-0.0301,-0.0352,-0.0472,-0.0451,-0.0454,-0.053,-0.0528,-0.0514,-0.052,-0.0473,-0.0473,-0.0473,-0.0474,0,-0.0218,-0.0207,-0.0197,-0.018,-0.0163,-0.0133,-0.013,-0.0099,-0.0085,-0.007,-0.0049,-0.0092,-0.0125,-0.0203,-0.0245,-0.0302,-0.0329,-0.0358,-0.0366,-0.0371,-0.0399,-0.0383,-0.0259,0,0,0,0,0,-0.0209,-0.0191,-0.0168,-0.0145,-0.0124,-0.0117,-0.0087,-0.0082,-0.0068,-0.0027,-0.0036,-0.0051,-0.0119,-0.0153,-0.0202,-0.0249,-0.0355,-0.031,-0.0396,-0.0453,-0.0457,-0.0513,0,0,0,0,0,0,-0.0198,-0.018,-0.0163,-0.012,-0.01,-0.0076,-0.0059,-0.0048,-0.0022,-0.0014,-0.0046,-0.0064,-0.0134,-0.0089,-0.0203,-0.0222,-0.0283,-0.0347,-0.0348,-0.0451,-0.0455,-0.0458,-0.0516,0,0,0,0,0]}]]